Location: Quebrada Ticuanayoy
(1.2446°N, 76.5669°W)
Time: 07:12:08
(UTC+00:00)

Daily predictions for brighter satellites

Satellite Brightness Start Highest point End
(mag) Time Altitude Azimuth Time Altitude Azimuth Time Altitude Azimuth
Envisat 3.5 23:08:52 10° SE 23:13:32 37° ENE 23:18:10 10° NNE
NOSS 3-2 (C) 3.3 23:12:40 10° S 23:18:03 53° ESE 23:23:25 10° NE
Cosmos 1241 Rocket 4.5 23:13:35 10° NNW 23:19:46 87° ENE 23:26:00 10° SSE
Cosmos 1339 Rocket 4.4 23:16:31 10° S 23:22:31 62° E 23:28:28 10° NNE
Cosmos 1726 3.2 23:20:57 10° SSW 23:24:32 49° W 23:28:05 10° N
NOAA 12 4.1 23:26:35 10° SSE 23:31:50 88° ENE 23:37:05 10° NNW
CSL-04 Rocket 4.4 23:27:47 10° SE 23:32:41 32° ENE 23:37:33 10° NNE
Meteor 1-21 Rocket 4.2 23:29:40 10° N 23:35:24 83° E 23:41:02 10° S
Hubble Space Telescope 1.4 23:32:57 10° NW 23:36:49 38° NNE 23:39:30 17° E
BLOCK DM-SL R/B 3.0 23:35:15 10° W 23:40:56 78° S 23:44:02 18° E
Ariane H10 3.8 23:30:25 10° W 23:42:28 79° S 23:44:58 19° E
Cosmos 1727 Rocket 4.0 23:36:35 10° S 23:42:44 62° E 23:48:48 10° NNE
Cosmos 1300 3.3 23:41:00 10° SSE 23:44:29 34° E 23:47:55 10° NNE
Cosmos 1271 Rocket 2.7 23:40:58 10° N 23:44:58 86° E 23:48:58 10° S
CZ-4C R/B 3.5 23:38:35 10° N 23:46:11 40° ENE 23:53:49 10° SE
Cosmos 1953 Rocket 3.8 23:50:28 10° N 23:54:45 70° W 23:59:03 10° S
